Wind_Speed
27 28 28 29 30 30 27 24 23 23 24 25 25 25 23 22 22 21 20 19 19 19 18 18 17 17 16 15 14 14 13 12 11 10 10 9 8 8 7 7 7 6 6 5 5 5 5 5 5
28 29 30 31 32 30 27 25 24 24 26 27 27 26 25 24 23 23 21 21 21 20 20 20 19 19 18 17 16 15 15 14 13 12 11 11 10 10 9 8 8 8 7 7 7 6 6 6 6
29 30 31 32 32 30 27 26 25 26 27 28 28 27 26 25 25 24 23 22 22 22 22 22 21 20 20 19 18 18 17 16 15 14 13 13 12 11 11 10 9 9 9 9 8 7 7 7 7
29 30 32 32 31 29 28 27 27 28 28 28 28 28 27 26 26 26 25 24 24 23 23 23 23 22 21 21 20 20 19 18 17 16 15 14 14 13 13 12 11 10 10 10 9 9 8 8 8
30 31 32 31 30 29 28 28 29 29 29 29 29 28 27 27 27 27 26 25 25 24 24 24 24 23 23 22 22 21 20 20 19 18 18 17 16 15 15 14 13 12 11 11 11 11 10 10 10
32 32 33 31 29 29 29 30 30 30 29 30 30 29 28 28 28 28 27 27 26 26 25 25 25 24 24 23 23 22 22 21 21 20 19 19 18 17 17 16 16 15 14 13 12 13 12 12 11
33 34 33 32 30 30 29 30 31 30 30 30 30 29 28 29 29 29 29 28 28 27 27 27 26 26 25 25 24 23 23 22 22 22 21 21 20 20 19 19 18 17 16 16 15 14 14 13 13
35 35 34 32 31 30 30 31 31 31 31 31 31 30 29 29 30 29 29 29 28 28 27 27 28 28 27 27 26 25 24 24 23 23 22 22 22 21 21 20 20 19 19 18 17 17 16 16 15
36 36 34 32 31 31 31 32 32 31 31 31 31 30 29 29 30 30 30 29 28 28 28 28 28 29 28 28 27 27 26 26 25 24 24 23 23 23 22 22 22 21 21 20 20 19 19 18 18
37 37 34 33 33 33 33 33 33 33 32 32 31 31 30 30 30 30 31 30 30 29 29 29 29 29 29 29 28 28 28 27 27 27 26 25 24 24 24 23 23 23 22 22 21 21 20 20 20
38 37 35 35 35 35 34 35 35 34 33 32 32 31 31 31 31 31 31 31 31 30 30 30 30 30 30 30 30 29 29 29 29 28 28 27 26 25 25 25 24 24 23 23 23 22 22 22 21
39 37 37 36 36 36 36 36 36 36 34 34 34 33 33 33 33 32 32 32 33 32 31 31 31 31 31 31 31 30 30 30 29 29 29 29 28 27 26 26 25 25 25 24 24 24 23 23 23
40 39 39 38 38 38 38 38 38 37 35 36 36 35 35 34 34 34 34 34 34 34 33 32 32 32 31 32 32 31 31 31 31 30 30 30 29 29 28 28 28 27 27 26 26 26 25 25 25
42 42 41 41 41 40 41 40 40 37 37 38 37 37 36 36 36 36 36 35 35 35 36 34 33 33 32 32 32 32 32 32 32 31 31 31 30 29 29 29 29 28 27 27 27 27 27 26 26
43 44 44 43 43 43 43 43 40 39 39 39 39 39 38 37 37 37 36 36 36 36 36 36 35 34 33 33 33 33 33 33 32 32 32 32 32 31 31 30 30 29 29 28 28 27 27 27 26
47 47 47 45 45 45 46 44 41 41 41 41 41 40 39 39 38 38 37 37 37 37 37 37 36 35 34 34 34 34 34 34 33 33 32 32 32 32 32 31 31 30 30 30 29 29 28 28 28
49 49 49 48 47 48 48 46 44 43 43 43 42 42 42 40 40 39 38 38 38 38 38 37 37 36 36 35 34 35 35 35 34 33 33 32 33 32 32 32 32 31 31 31 31 31 30 29 29
49 50 50 49 49 50 50 49 47 46 45 45 44 44 44 42 41 40 40 40 40 40 39 39 38 37 37 36 35 34 36 35 35 33 33 33 33 33 33 33 33 33 32 32 32 31 31 31 31
50 51 51 50 50 51 52 51 49 49 48 47 46 46 46 44 43 42 42 41 41 41 41 40 38 38 38 36 35 35 35 36 35 34 33 33 34 34 34 34 34 34 34 33 33 33 32 32 33
51 51 51 51 51 52 53 53 52 51 50 49 48 47 47 46 45 44 43 43 42 41 41 41 40 38 38 37 36 36 37 37 36 35 34 34 34 34 34 35 35 35 35 35 35 35 34 34 34
50 50 50 51 51 52 53 54 52 52 51 50 49 49 48 47 46 46 45 44 44 43 42 41 41 40 40 39 37 37 37 38 37 36 36 36 36 35 35 35 36 36 36 36 36 36 35 35 35
48 48 49 49 50 52 53 54 52 52 52 52 51 50 49 49 48 47 47 46 45 44 43 42 42 41 41 41 40 39 38 38 37 37 38 38 38 37 36 36 36 36 36 37 37 37 36 36 36
46 47 48 48 50 52 52 54 53 52 52 52 52 52 51 50 49 48 48 47 46 45 44 44 43 43 43 42 42 40 39 39 39 39 39 39 39 39 38 37 37 37 37 38 38 37 37 37 37
44 45 46 48 49 52 51 53 54 53 52 52 52 52 51 50 50 49 48 48 47 46 45 45 44 43 43 43 42 41 40 40 40 40 39 39 39 39 38 38 38 38 39 39 39 39 38 38 38
41 42 44 46 49 51 49 51 53 52 51 52 52 52 51 51 51 51 50 49 48 47 46 46 45 45 44 44 43 42 41 41 41 41 40 40 40 39 39 39 39 39 39 40 40 40 40 39 39
38 39 41 43 46 48 48 49 50 51 51 51 51 51 51 51 51 51 50 50 49 48 47 47 46 46 45 45 44 43 43 43 43 43 42 41 40 40 40 40 40 40 40 40 40 41 40 40 40
35 37 37 39 42 45 46 48 49 49 49 49 50 50 50 50 50 50 50 50 50 49 49 48 47 47 46 46 45 45 44 44 44 44 43 43 42 41 41 42 41 41 41 40 40 41 41 41 41
32 33 33 35 37 40 43 44 45 47 48 48 49 49 49 50 50 51 51 51 51 51 50 49 48 47 47 47 47 46 46 45 44 44 44 44 43 43 42 42 42 42 42 41 41 41 41 41 41
27 29 30 31 34 37 40 41 42 44 45 46 47 48 49 49 50 51 52 51 51 51 51 51 50 49 48 47 47 47 47 46 45 45 45 45 45 44 44 43 43 43 42 42 42 42 42 42 42
24 26 28 30 32 35 37 39 38 40 42 43 44 45 46 47 48 50 51 51 51 51 51 51 50 49 49 49 48 48 48 47 47 46 46 45 45 45 45 44 44 44 44 43 43 43 43 43 43
Wind_Direction
246 246 246 246 246 247 248 248 246 243 243 243 244 245 246 245 244 243 240 237 235 233 231 230 229 229 229 230 228 227 225 224 225 223 220 217 215 214 212 209 213 213 217 221 224 230 224 216 213
246 246 246 247 247 248 248 249 247 245 244 243 244 245 245 245 243 242 239 237 236 234 233 232 231 231 232 232 231 229 228 228 227 227 225 222 220 219 219 220 223 225 228 232 234 235 231 225 221
248 247 248 248 248 249 249 248 246 244 244 244 244 245 245 245 244 242 240 238 237 236 235 234 233 233 233 234 234 233 231 230 230 229 228 227 226 225 225 227 230 232 234 236 238 237 238 236 231
249 249 249 249 249 248 248 246 244 243 244 244 244 244 244 244 244 243 242 239 237 236 235 235 234 234 234 235 235 234 233 232 232 231 230 230 230 230 230 231 233 235 238 240 240 239 240 241 241
250 249 249 249 249 247 246 245 244 244 244 244 244 243 242 242 243 243 242 240 238 237 236 236 235 234 233 234 235 234 234 234 233 234 233 233 233 233 233 234 235 236 238 240 241 240 243 245 244
251 250 250 250 249 248 246 245 245 245 244 244 244 243 242 241 242 242 241 241 239 238 237 235 235 234 234 234 235 235 235 235 235 235 236 236 236 236 237 237 237 237 239 241 241 241 244 246 246
251 251 251 250 249 248 247 246 246 246 244 244 244 243 242 241 241 241 241 240 240 239 238 236 235 235 234 234 235 235 236 236 237 238 238 238 238 238 239 240 240 240 241 243 243 242 244 246 246
253 252 251 250 249 248 247 246 246 245 244 243 243 243 242 241 241 240 240 239 239 239 238 237 236 235 235 235 235 236 236 236 237 237 238 239 240 240 240 241 242 242 243 244 245 244 245 246 247
252 252 251 250 249 248 245 245 244 244 243 243 243 243 242 240 240 239 238 238 238 238 238 238 238 238 237 237 237 237 237 238 238 238 238 240 241 241 242 242 244 244 244 245 246 246 246 248 249
252 252 252 251 249 248 245 244 243 243 243 243 243 242 242 241 240 239 238 237 238 238 238 238 238 239 239 239 238 239 239 239 238 239 239 239 241 241 242 243 243 244 244 245 247 247 248 249 249
252 252 251 250 249 248 246 244 243 243 243 243 243 242 242 241 239 239 239 238 237 237 237 237 238 239 240 240 240 240 240 239 239 239 239 240 241 241 243 243 243 243 244 245 247 248 249 249 250
252 251 250 249 248 247 246 244 244 244 243 242 241 240 240 241 240 239 239 239 238 238 238 238 238 239 240 241 241 241 240 239 239 240 240 240 240 241 242 244 243 243 245 247 249 250 250 251 251
252 250 249 248 248 247 246 245 244 243 242 242 241 240 240 240 240 239 239 239 239 239 238 238 239 240 241 241 241 241 240 239 239 240 240 240 240 241 243 244 245 246 246 248 249 251 252 252 252
253 251 249 248 247 247 247 245 244 243 242 241 241 240 240 239 240 239 239 239 240 239 239 239 240 241 242 241 240 240 239 239 239 240 240 240 240 240 242 244 244 246 247 248 249 250 252 254 254
253 252 250 248 248 247 247 245 244 242 241 241 241 240 240 239 239 239 239 239 240 240 241 240 240 241 242 242 240 240 239 239 239 239 240 240 240 241 242 244 244 245 247 249 249 250 251 253 253
253 251 250 247 247 246 246 245 243 242 241 240 240 240 240 239 239 238 238 238 239 240 241 242 241 241 242 242 241 239 239 239 239 239 240 241 240 241 242 244 244 245 246 248 249 250 252 253 254
253 252 250 248 246 246 245 244 242 241 240 240 239 240 239 239 238 238 238 238 239 239 240 242 242 242 241 242 241 240 240 240 239 240 240 241 241 241 242 244 244 245 247 248 250 251 251 253 255
254 253 251 249 248 246 245 244 242 241 240 240 239 239 239 238 238 238 238 238 238 239 239 240 241 241 241 241 241 240 240 240 239 240 241 241 240 240 242 244 245 246 248 250 251 253 253 254 255
254 253 252 250 248 248 245 244 242 241 240 239 239 239 239 238 237 238 238 238 238 238 239 239 240 240 240 240 241 240 239 238 238 239 241 242 241 241 243 244 246 247 249 250 252 253 254 255 256
252 252 251 249 248 248 246 244 242 241 240 239 239 239 239 238 238 238 238 238 238 238 239 239 239 239 239 239 240 238 239 237 238 240 242 243 243 243 245 247 247 248 249 251 252 253 254 256 257
251 251 251 250 248 247 247 245 242 241 241 240 239 239 238 239 238 238 238 238 237 237 238 238 238 238 238 239 239 239 239 238 240 241 242 244 245 245 246 247 248 249 250 251 252 253 255 255 256
252 251 251 250 249 248 247 247 241 240 240 240 239 239 239 239 238 238 238 238 238 237 237 237 237 237 237 238 239 240 240 240 240 241 242 244 244 245 247 247 248 249 250 251 251 252 254 255 257
253 251 251 249 249 248 247 247 242 240 241 240 239 239 239 239 239 238 238 237 237 237 237 236 236 237 236 237 238 239 240 240 240 241 242 244 244 245 247 248 248 249 249 250 251 252 254 256 257
253 251 250 249 249 249 247 248 245 241 241 240 239 239 239 239 238 238 238 237 236 236 237 236 236 237 237 237 238 238 238 239 241 241 243 244 245 245 247 248 248 248 249 251 252 253 254 256 258
253 251 250 249 248 249 247 247 246 243 242 241 239 238 238 238 238 237 237 237 236 237 237 236 236 237 237 237 238 238 239 240 242 242 243 244 245 245 248 248 248 249 250 251 252 254 255 257 259
252 252 251 252 250 249 247 246 246 244 243 242 240 239 238 238 237 236 236 236 236 237 237 236 236 237 237 238 238 238 239 240 241 242 242 244 246 247 248 248 248 249 250 251 253 254 256 257 259
254 252 252 253 251 249 248 247 245 244 243 241 240 239 237 237 236 235 235 235 236 237 236 236 236 236 237 238 238 239 239 240 241 242 243 245 246 247 247 248 249 250 251 252 253 254 255 257 259
260 256 251 250 249 247 246 247 245 243 243 242 241 240 238 237 236 235 234 234 235 236 236 236 236 236 237 238 239 240 240 241 241 243 244 246 246 247 247 248 250 251 252 253 253 255 256 257 259
259 253 249 248 246 244 243 244 244 243 243 243 242 241 239 238 237 236 235 235 235 235 236 235 235 236 237 238 239 240 241 242 242 243 245 246 246 247 247 248 250 251 252 253 255 256 256 258 260
257 253 249 247 245 242 244 245 243 244 243 242 241 240 240 239 238 237 236 235 235 235 235 235 235 236 238 239 239 240 241 242 243 244 245 246 247 247 248 249 250 251 252 254 255 257 258 259 260
Height
5792 5794 5796 5797 5799 5800 5803 5807 5809 5811 5812 5814 5815 5816 5819 5821 5824 5828 5829 5829 5830 5832 5834 5835 5837 5839 5841 5842 5844 5846 5847 5849 5850 5852 5854 5855 5856 5858 5859 5860 5862 5863 5864 5865 5866 5867 5868 5869 5870
5787 5789 5791 5792 5793 5795 5799 5803 5805 5806 5807 5809 5810 5812 5814 5816 5819 5821 5823 5825 5826 5829 5830 5832 5834 5836 5838 5840 5842 5843 5845 5847 5848 5850 5852 5853 5855 5856 5858 5859 5860 5862 5863 5864 5865 5866 5867 5868 5869
5782 5783 5785 5786 5788 5791 5796 5798 5800 5800 5802 5804 5805 5807 5810 5812 5814 5816 5818 5820 5823 5825 5827 5829 5831 5833 5835 5837 5839 5840 5842 5844 5846 5848 5849 5851 5853 5854 5856 5857 5859 5860 5861 5862 5863 5865 5866 5867 5868
5776 5778 5779 5781 5783 5787 5790 5792 5793 5795 5796 5798 5800 5803 5805 5808 5810 5812 5814 5816 5818 5820 5822 5825 5827 5829 5831 5833 5835 5837 5839 5841 5843 5845 5847 5849 5851 5852 5854 5855 5857 5858 5859 5860 5862 5863 5864 5866 5867
5770 5771 5773 5775 5778 5782 5784 5786 5787 5789 5791 5793 5795 5798 5800 5803 5804 5807 5809 5811 5813 5816 5818 5820 5822 5825 5827 5829 5831 5833 5836 5838 5840 5842 5844 5846 5848 5849 5851 5853 5854 5856 5857 5858 5860 5861 5862 5864 5865
5764 5765 5767 5770 5773 5776 5778 5780 5781 5783 5786 5788 5790 5792 5795 5797 5799 5801 5804 5806 5808 5811 5813 5816 5818 5820 5822 5825 5827 5829 5831 5834 5836 5838 5840 5842 5844 5846 5848 5850 5851 5853 5855 5856 5857 5859 5860 5861 5863
5758 5759 5761 5764 5767 5770 5772 5773 5775 5777 5780 5782 5784 5786 5789 5792 5794 5796 5798 5801 5803 5806 5808 5811 5813 5815 5818 5820 5822 5825 5827 5829 5832 5834 5836 5838 5841 5843 5845 5846 5848 5850 5852 5853 5855 5856 5858 5859 5860
5750 5752 5754 5757 5760 5764 5766 5767 5768 5771 5773 5775 5777 5780 5784 5786 5788 5790 5792 5795 5798 5800 5803 5805 5808 5810 5813 5815 5817 5820 5822 5825 5827 5829 5832 5834 5836 5839 5841 5843 5844 5846 5848 5850 5852 5853 5855 5856 5857
5741 5744 5747 5751 5754 5757 5758 5759 5761 5763 5766 5769 5771 5774 5777 5779 5781 5784 5787 5789 5792 5795 5797 5800 5802 5805 5807 5810 5812 5815 5817 5820 5822 5825 5827 5829 5832 5834 5836 5838 5840 5842 5844 5846 5848 5849 5851 5853 5854
5733 5736 5741 5744 5746 5748 5750 5752 5754 5756 5759 5762 5764 5767 5770 5772 5775 5778 5781 5783 5786 5789 5791 5794 5796 5799 5801 5804 5807 5809 5812 5815 5817 5819 5822 5824 5827 5829 5831 5834 5836 5838 5840 5842 5843 5845 5847 5849 5850
5725 5729 5733 5734 5736 5739 5741 5744 5746 5749 5752 5755 5758 5760 5763 5765 5768 5771 5774 5777 5780 5782 5785 5788 5790 5793 5795 5798 5801 5803 5806 5809 5811 5814 5816 5819 5821 5824 5826 5829 5831 5833 5835 5837 5839 5841 5843 5844 5846
5716 5720 5722 5725 5727 5729 5732 5735 5738 5741 5745 5747 5750 5752 5755 5758 5761 5764 5767 5770 5773 5775 5778 5781 5784 5786 5789 5792 5794 5797 5800 5802 5805 5808 5811 5813 5816 5818 5821 5823 5826 5828 5830 5832 5834 5836 5838 5840 5841
5706 5710 5712 5715 5717 5720 5722 5726 5729 5733 5736 5738 5741 5744 5747 5750 5753 5756 5759 5762 5765 5768 5771 5774 5777 5780 5782 5785 5788 5790 5793 5796 5799 5801 5804 5807 5810 5813 5815 5818 5820 5823 5825 5827 5829 5831 5833 5834 5836
5696 5699 5701 5704 5707 5710 5712 5716 5719 5725 5727 5729 5732 5736 5739 5742 5745 5748 5752 5755 5758 5761 5763 5767 5770 5773 5775 5778 5781 5783 5786 5789 5792 5795 5798 5801 5804 5806 5809 5812 5815 5817 5819 5821 5823 5825 5827 5829 5831
5684 5686 5690 5693 5696 5699 5701 5706 5711 5716 5717 5720 5724 5727 5730 5733 5737 5740 5744 5747 5750 5753 5756 5759 5762 5765 5768 5771 5774 5776 5779 5782 5785 5788 5791 5794 5797 5800 5803 5806 5808 5811 5813 5815 5817 5819 5821 5823 5825
5671 5673 5677 5683 5685 5688 5691 5696 5703 5704 5707 5711 5714 5717 5721 5725 5728 5732 5735 5738 5742 5745 5748 5751 5755 5758 5761 5763 5766 5769 5772 5775 5778 5781 5784 5787 5790 5793 5796 5799 5802 5805 5807 5809 5811 5813 5815 5817 5819
5657 5660 5665 5670 5673 5675 5678 5685 5691 5693 5696 5700 5704 5708 5711 5715 5719 5723 5727 5730 5733 5737 5740 5743 5746 5750 5753 5756 5759 5762 5765 5768 5771 5774 5777 5780 5783 5787 5789 5793 5795 5798 5800 5803 5805 5807 5809 5811 5813
5646 5649 5652 5656 5660 5663 5666 5673 5678 5682 5685 5690 5693 5697 5701 5706 5710 5714 5717 5721 5724 5728 5731 5735 5738 5741 5745 5748 5751 5754 5757 5760 5764 5767 5770 5773 5776 5779 5782 5785 5788 5791 5794 5796 5798 5800 5802 5804 5806
5632 5635 5638 5643 5646 5648 5653 5659 5664 5669 5674 5678 5682 5686 5691 5695 5700 5703 5707 5711 5715 5719 5723 5726 5730 5733 5736 5740 5743 5746 5750 5753 5756 5760 5763 5766 5769 5772 5775 5778 5781 5784 5786 5789 5791 5793 5795 5797 5799
5617 5620 5624 5628 5631 5634 5638 5644 5651 5656 5662 5666 5670 5675 5679 5684 5689 5693 5697 5701 5706 5710 5714 5718 5721 5724 5728 5732 5735 5738 5741 5744 5748 5752 5755 5758 5761 5764 5768 5770 5773 5776 5778 5781 5783 5785 5787 5789 5791
5604 5607 5611 5614 5617 5620 5624 5629 5637 5643 5648 5653 5658 5663 5668 5673 5678 5682 5687 5691 5695 5700 5704 5708 5712 5716 5719 5723 5726 5730 5733 5736 5740 5744 5748 5751 5753 5756 5759 5762 5765 5768 5770 5773 5775 5777 5779 5781 5783
5592 5595 5598 5601 5603 5607 5611 5614 5625 5629 5634 5640 5646 5651 5656 5661 5666 5671 5676 5681 5685 5690 5694 5698 5702 5706 5710 5714 5717 5721 5725 5729 5732 5735 5739 5742 5745 5748 5751 5753 5756 5759 5762 5764 5766 5769 5771 5773 5774
5579 5582 5585 5588 5590 5593 5598 5600 5610 5615 5621 5627 5633 5639 5644 5649 5655 5660 5665 5670 5675 5679 5684 5688 5692 5696 5701 5705 5708 5712 5716 5720 5723 5726 5730 5733 5736 5739 5742 5745 5748 5750 5753 5755 5758 5760 5762 5764 5766
5566 5570 5572 5574 5576 5579 5587 5589 5595 5602 5608 5615 5621 5626 5632 5637 5642 5648 5653 5658 5663 5668 5673 5678 5682 5687 5691 5695 5699 5703 5707 5711 5714 5717 5721 5724 5727 5730 5733 5736 5739 5741 5744 5747 5749 5751 5753 5755 5757
5555 5557 5559 5560 5562 5567 5575 5577 5583 5589 5596 5602 5608 5614 5619 5625 5630 5636 5641 5647 5652 5658 5663 5668 5672 5677 5681 5686 5690 5694 5698 5701 5705 5708 5712 5715 5718 5722 5725 5727 5730 5732 5735 5737 5740 5742 5744 5746 5748
5545 5547 5549 5550 5552 5557 5562 5566 5572 5577 5583 5589 5595 5601 5607 5612 5618 5624 5630 5636 5641 5646 5651 5657 5662 5667 5671 5676 5680 5684 5688 5692 5696 5699 5702 5706 5709 5712 5715 5718 5721 5723 5726 5728 5730 5732 5735 5737 5739
5535 5536 5539 5541 5542 5546 5550 5555 5561 5565 5571 5576 5582 5588 5594 5600 5606 5612 5618 5624 5630 5635 5640 5645 5651 5656 5661 5665 5670 5674 5678 5682 5686 5689 5693 5696 5700 5703 5705 5708 5711 5714 5716 5718 5721 5723 5725 5727 5729
5527 5528 5530 5531 5533 5536 5540 5545 5550 5556 5561 5566 5571 5577 5583 5589 5594 5600 5606 5612 5618 5623 5629 5634 5639 5645 5650 5655 5659 5663 5668 5672 5676 5679 5683 5686 5690 5693 5696 5699 5702 5704 5707 5709 5711 5713 5715 5717 5719
5519 5521 5521 5523 5525 5528 5531 5538 5541 5546 5551 5556 5560 5565 5571 5577 5583 5588 5594 5600 5606 5612 5617 5623 5628 5634 5639 5644 5648 5653 5657 5661 5665 5669 5672 5676 5679 5683 5686 5689 5692 5695 5697 5699 5701 5703 5705 5707 5709
5511 5513 5514 5516 5518 5520 5523 5530 5532 5536 5540 5545 5550 5555 5560 5566 5571 5576 5582 5588 5594 5600 5606 5612 5617 5622 5628 5633 5637 5642 5646 5650 5654 5658 5662 5665 5669 5672 5676 5679 5681 5684 5687 5689 5691 5693 5695 5697 5698